contact: severine.martini@mio.osupytheas.fr, dominique.lefevre@mio.osupytheas.fr
Project:EMSO Ligure-ouest http://www.emso-fr.org/EMSO-France
Sensor Optode, line 4330 Serial 272 
DOI : "https://doi.org/10.17882/97948" 
Title:EMSO Ligure Ouest : Data BathyDock capteur Optode - deploiement "2023-04-28"
Datetime,Profondeur,Latitude,Longitude,optode_type,serial,O2_concentration,O2_saturation,Temperature,Calibrated_Phase,Temp_Compensated_Phase,phase_blue_light,phase_red_light,Amplitude_blue_light,Amplitude_red_light,thermistor_bridge
time,m,degree_north,degree_east,1,1,umol.l-1,%,degree_C,degree,degree,degree,degree,mV,mV,mV
2023-09-30T00:00:08,2420,42.8014,5.9826,4330,272,186.668,57.180,13.317,36.023,36.603,41.189,4.586,295.1,542.5,291.0
2023-09-30T00:03:07,2420,42.8014,5.9826,4330,272,186.892,57.249,13.317,36.008,36.588,41.184,4.596,295.2,542.5,291.0
2023-09-30T00:06:07,2420,42.8014,5.9826,4330,272,186.717,57.189,13.312,36.022,36.602,41.195,4.593,295.2,542.5,291.2
2023-09-30T00:09:07,2420,42.8014,5.9826,4330,272,186.620,57.163,13.315,36.027,36.607,41.199,4.591,295.2,542.5,291.1
2023-09-30T00:12:07,2420,42.8014,5.9826,4330,272,186.711,57.187,13.312,36.023,36.603,41.196,4.593,295.2,542.5,291.2
2023-09-30T00:15:07,2420,42.8014,5.9826,4330,272,186.701,57.185,13.313,36.023,36.603,41.196,4.592,295.2,542.6,291.1
2023-09-30T00:18:07,2420,42.8014,5.9826,4330,272,186.848,57.232,13.314,36.012,36.593,41.186,4.593,295.2,542.6,291.1
2023-09-30T00:21:08,2420,42.8014,5.9826,4330,272,186.845,57.230,13.314,36.013,36.593,41.184,4.590,295.3,542.6,291.1
2023-09-30T00:24:08,2420,42.8014,5.9826,4330,272,186.849,57.231,13.313,36.013,36.593,41.184,4.591,295.2,542.6,291.1
2023-09-30T00:27:08,2420,42.8014,5.9826,4330,272,186.797,57.216,13.314,36.016,36.596,41.190,4.594,295.2,542.6,291.1
2023-09-30T00:30:08,2420,42.8014,5.9826,4330,272,186.912,57.249,13.312,36.010,36.590,41.182,4.593,295.2,542.6,291.2
2023-09-30T00:33:07,2420,42.8014,5.9826,4330,272,187.039,57.284,13.309,36.002,36.583,41.180,4.598,295.2,542.5,291.2
2023-09-30T00:36:07,2420,42.8014,5.9826,4330,272,186.880,57.240,13.313,36.011,36.591,41.181,4.590,295.2,542.5,291.1
2023-09-30T00:39:07,2420,42.8014,5.9826,4330,272,186.822,57.222,13.313,36.015,36.595,41.187,4.592,295.2,542.6,291.1
2023-09-30T00:42:07,2420,42.8014,5.9826,4330,272,186.925,57.255,13.314,36.008,36.588,41.182,4.593,295.1,542.6,291.1
2023-09-30T00:45:07,2420,42.8014,5.9826,4330,272,186.869,57.235,13.312,36.012,36.592,41.187,4.595,295.2,542.6,291.2
2023-09-30T00:48:07,2420,42.8014,5.9826,4330,272,186.753,57.198,13.310,36.021,36.601,41.195,4.594,295.1,542.6,291.2
2023-09-30T00:51:07,2420,42.8014,5.9826,4330,272,187.129,57.311,13.309,35.997,36.578,41.170,4.593,295.2,542.5,291.3
2023-09-30T00:54:07,2420,42.8014,5.9826,4330,272,186.902,57.247,13.313,36.010,36.590,41.183,4.592,295.2,542.6,291.1
2023-09-30T00:57:07,2420,42.8014,5.9826,4330,272,186.909,57.245,13.310,36.010,36.590,41.183,4.593,295.2,542.5,291.2
2023-09-30T01:00:08,2420,42.8014,5.9826,4330,272,186.954,57.259,13.310,36.007,36.587,41.181,4.594,295.2,542.6,291.2
2023-09-30T01:03:07,2420,42.8014,5.9826,4330,272,186.912,57.245,13.309,36.011,36.591,41.183,4.592,295.2,542.6,291.3
2023-09-30T01:06:07,2420,42.8014,5.9826,4330,272,186.844,57.234,13.317,36.011,36.591,41.184,4.592,295.2,542.6,291.0
2023-09-30T01:09:07,2420,42.8014,5.9826,4330,272,186.970,57.265,13.311,36.006,36.586,41.178,4.592,295.2,542.6,291.2
2023-09-30T01:12:07,2420,42.8014,5.9826,4330,272,186.955,57.260,13.310,36.008,36.588,41.180,4.592,295.3,542.6,291.2
2023-09-30T01:15:07,2420,42.8014,5.9826,4330,272,186.985,57.269,13.310,36.005,36.585,41.178,4.593,295.2,542.6,291.2
2023-09-30T01:18:08,2420,42.8014,5.9826,4330,272,186.866,57.230,13.308,36.014,36.595,41.190,4.595,295.2,542.5,291.3
2023-09-30T01:21:08,2420,42.8014,5.9826,4330,272,186.916,57.247,13.309,36.010,36.590,41.181,4.591,295.2,542.6,291.2
2023-09-30T01:24:08,2420,42.8014,5.9826,4330,272,186.939,57.254,13.310,36.009,36.589,41.182,4.593,295.2,542.6,291.2
2023-09-30T01:27:08,2420,42.8014,5.9826,4330,272,186.854,57.228,13.310,36.014,36.595,41.194,4.599,295.1,542.6,291.2
2023-09-30T01:30:08,2420,42.8014,5.9826,4330,272,187.035,57.279,13.307,36.004,36.584,41.181,4.597,295.2,542.6,291.3
2023-09-30T01:33:07,2420,42.8014,5.9826,4330,272,186.967,57.261,13.309,36.007,36.587,41.182,4.595,295.2,542.6,291.3
2023-09-30T01:36:07,2420,42.8014,5.9826,4330,272,186.967,57.265,13.312,36.006,36.586,41.178,4.592,295.1,542.6,291.2
2023-09-30T01:39:07,2420,42.8014,5.9826,4330,272,186.927,57.250,13.310,36.009,36.590,41.183,4.594,295.2,542.5,291.2
2023-09-30T01:42:07,2420,42.8014,5.9826,4330,272,186.952,57.260,13.311,36.007,36.588,41.182,4.595,295.1,542.6,291.2
2023-09-30T01:45:07,2420,42.8014,5.9826,4330,272,186.853,57.227,13.309,36.015,36.595,41.189,4.594,295.2,542.6,291.2
2023-09-30T01:48:07,2420,42.8014,5.9826,4330,272,186.987,57.266,13.307,36.007,36.588,41.182,4.595,295.2,542.6,291.3
2023-09-30T01:51:08,2420,42.8014,5.9826,4330,272,187.070,57.291,13.307,36.001,36.582,41.177,4.596,295.2,542.6,291.3
2023-09-30T01:54:08,2420,42.8014,5.9826,4330,272,186.804,57.219,13.315,36.015,36.595,41.195,4.599,295.1,542.6,291.1
2023-09-30T01:57:08,2420,42.8014,5.9826,4330,272,186.966,57.260,13.308,36.008,36.588,41.184,4.596,295.1,542.6,291.3
2023-09-30T02:00:08,2420,42.8014,5.9826,4330,272,186.976,57.267,13.311,36.006,36.586,41.179,4.593,295.2,542.6,291.2
2023-09-30T02:03:07,2420,42.8014,5.9826,4330,272,186.968,57.263,13.310,36.007,36.587,41.182,4.595,295.3,542.6,291.2
2023-09-30T02:06:07,2420,42.8014,5.9826,4330,272,186.955,57.259,13.310,36.008,36.588,41.181,4.593,295.1,542.6,291.2
2023-09-30T02:09:07,2420,42.8014,5.9826,4330,272,186.805,57.213,13.310,36.017,36.598,41.190,4.592,295.2,542.6,291.2
2023-09-30T02:12:07,2420,42.8014,5.9826,4330,272,186.837,57.226,13.313,36.014,36.594,41.184,4.590,295.2,542.6,291.1
2023-09-30T02:15:07,2420,42.8014,5.9826,4330,272,186.858,57.233,13.313,36.013,36.593,41.187,4.594,295.1,542.6,291.1
2023-09-30T02:18:07,2420,42.8014,5.9826,4330,272,187.054,57.287,13.308,36.002,36.583,41.173,4.590,295.2,542.6,291.3
2023-09-30T02:21:07,2420,42.8014,5.9826,4330,272,186.967,57.259,13.307,36.008,36.588,41.180,4.591,295.2,542.7,291.3
2023-09-30T02:24:07,2420,42.8014,5.9826,4330,272,186.809,57.212,13.308,36.018,36.599,41.190,4.591,295.2,542.6,291.3
2023-09-30T02:27:07,2420,42.8014,5.9826,4330,272,186.888,57.234,13.307,36.014,36.594,41.186,4.593,295.3,542.6,291.3
2023-09-30T02:30:08,2420,42.8014,5.9826,4330,272,187.056,57.287,13.308,36.002,36.582,41.179,4.596,295.2,542.6,291.3
2023-09-30T02:33:07,2420,42.8014,5.9826,4330,272,186.918,57.244,13.307,36.011,36.592,41.185,4.594,295.1,542.6,291.3
2023-09-30T02:36:07,2420,42.8014,5.9826,4330,272,186.980,57.261,13.305,36.008,36.588,41.182,4.593,295.2,542.6,291.4
2023-09-30T02:39:08,2420,42.8014,5.9826,4330,272,186.810,57.209,13.306,36.019,36.599,41.193,4.594,295.2,542.7,291.4
2023-09-30T02:42:08,2420,42.8014,5.9826,4330,272,187.079,57.292,13.306,36.002,36.582,41.175,4.593,295.2,542.7,291.4
2023-09-30T02:45:08,2420,42.8014,5.9826,4330,272,186.972,57.262,13.308,36.008,36.588,41.183,4.595,295.2,542.6,291.3
2023-09-30T02:48:08,2420,42.8014,5.9826,4330,272,187.046,57.284,13.307,36.003,36.583,41.178,4.595,295.1,542.6,291.3
2023-09-30T02:51:08,2420,42.8014,5.9826,4330,272,187.047,57.287,13.310,36.002,36.582,41.178,4.596,295.2,542.6,291.2
2023-09-30T02:54:08,2420,42.8014,5.9826,4330,272,186.872,57.233,13.309,36.014,36.594,41.184,4.590,295.1,542.6,291.3
2023-09-30T02:57:08,2420,42.8014,5.9826,4330,272,186.951,57.253,13.306,36.010,36.590,41.185,4.595,295.2,542.6,291.4
2023-09-30T03:00:08,2420,42.8014,5.9826,4330,272,187.048,57.287,13.309,36.002,36.583,41.180,4.597,295.0,542.6,291.3
2023-09-30T03:03:07,2420,42.8014,5.9826,4330,272,186.948,57.253,13.307,36.010,36.590,41.176,4.587,295.1,542.6,291.3
2023-09-30T03:06:07,2420,42.8014,5.9826,4330,272,186.934,57.250,13.307,36.010,36.591,41.180,4.589,295.1,542.6,291.3
2023-09-30T03:09:07,2420,42.8014,5.9826,4330,272,186.845,57.220,13.306,36.016,36.597,41.189,4.592,295.2,542.6,291.4
2023-09-30T03:12:07,2420,42.8014,5.9826,4330,272,186.787,57.203,13.306,36.020,36.600,41.195,4.595,295.2,542.6,291.4
2023-09-30T03:15:07,2420,42.8014,5.9826,4330,272,187.003,57.272,13.308,36.005,36.585,41.177,4.591,295.2,542.6,291.3
2023-09-30T03:18:07,2420,42.8014,5.9826,4330,272,186.976,57.262,13.307,36.008,36.588,41.183,4.594,295.2,542.6,291.3
2023-09-30T03:21:07,2420,42.8014,5.9826,4330,272,187.114,57.303,13.306,35.999,36.580,41.172,4.593,295.1,542.6,291.4
2023-09-30T03:24:08,2420,42.8014,5.9826,4330,272,187.160,57.319,13.308,35.995,36.575,41.173,4.598,295.1,542.6,291.3
2023-09-30T03:27:08,2420,42.8014,5.9826,4330,272,186.878,57.230,13.306,36.015,36.595,41.184,4.589,295.2,542.6,291.4
2023-09-30T03:30:08,2420,42.8014,5.9826,4330,272,186.929,57.245,13.305,36.012,36.592,41.182,4.590,295.1,542.7,291.4
2023-09-30T03:33:07,2420,42.8014,5.9826,4330,272,186.712,57.180,13.306,36.025,36.606,41.192,4.587,295.1,542.6,291.4
2023-09-30T03:36:07,2420,42.8014,5.9826,4330,272,186.881,57.232,13.306,36.014,36.594,41.186,4.592,295.1,542.6,291.4
2023-09-30T03:39:07,2420,42.8014,5.9826,4330,272,187.115,57.304,13.307,35.999,36.579,41.174,4.595,295.2,542.6,291.3
2023-09-30T03:42:07,2420,42.8014,5.9826,4330,272,186.952,57.253,13.306,36.010,36.590,41.177,4.587,295.2,542.6,291.4
2023-09-30T03:45:07,2420,42.8014,5.9826,4330,272,187.046,57.281,13.306,36.004,36.584,41.175,4.590,295.1,542.7,291.4
2023-09-30T03:48:07,2420,42.8014,5.9826,4330,272,187.170,57.320,13.306,35.995,36.576,41.167,4.591,295.1,542.6,291.4
2023-09-30T03:51:07,2420,42.8014,5.9826,4330,272,187.043,57.280,13.306,36.004,36.585,41.177,4.592,295.1,542.6,291.4
2023-09-30T03:54:07,2420,42.8014,5.9826,4330,272,186.984,57.261,13.305,36.008,36.589,41.180,4.591,295.1,542.6,291.4
2023-09-30T03:57:07,2420,42.8014,5.9826,4330,272,186.989,57.262,13.304,36.009,36.589,41.182,4.593,295.1,542.6,291.4
2023-09-30T04:00:08,2420,42.8014,5.9826,4330,272,186.956,57.253,13.305,36.011,36.591,41.187,4.596,295.1,542.6,291.4
2023-09-30T04:03:07,2420,42.8014,5.9826,4330,272,186.940,57.247,13.304,36.011,36.592,41.187,4.595,295.1,542.7,291.4
2023-09-30T04:06:07,2420,42.8014,5.9826,4330,272,187.150,57.312,13.304,35.998,36.578,41.172,4.594,295.1,542.6,291.4
2023-09-30T04:09:07,2420,42.8014,5.9826,4330,272,186.945,57.248,13.304,36.011,36.592,41.189,4.597,295.1,542.7,291.4
2023-09-30T04:12:07,2420,42.8014,5.9826,4330,272,187.008,57.269,13.305,36.006,36.587,41.180,4.593,295.1,542.7,291.4
2023-09-30T04:15:07,2420,42.8014,5.9826,4330,272,187.035,57.275,13.303,36.006,36.586,41.182,4.595,295.1,542.7,291.5
2023-09-30T04:18:08,2420,42.8014,5.9826,4330,272,187.182,57.320,13.303,35.996,36.576,41.167,4.590,295.2,542.7,291.4
2023-09-30T04:21:08,2420,42.8014,5.9826,4330,272,187.116,57.299,13.303,36.001,36.581,41.175,4.594,295.1,542.6,291.5
2023-09-30T04:24:08,2420,42.8014,5.9826,4330,272,187.157,57.313,13.304,35.997,36.578,41.174,4.596,295.1,542.6,291.4
2023-09-30T04:27:08,2420,42.8014,5.9826,4330,272,187.155,57.315,13.305,35.997,36.578,41.175,4.598,295.0,542.6,291.4
2023-09-30T04:30:08,2420,42.8014,5.9826,4330,272,186.823,57.210,13.303,36.019,36.599,41.195,4.595,295.2,542.6,291.4
2023-09-30T04:33:07,2420,42.8014,5.9826,4330,272,186.881,57.230,13.305,36.015,36.595,41.185,4.589,295.1,542.6,291.4
2023-09-30T04:36:07,2420,42.8014,5.9826,4330,272,187.143,57.310,13.305,35.998,36.579,41.171,4.593,295.2,542.6,291.4
2023-09-30T04:39:07,2420,42.8014,5.9826,4330,272,187.173,57.321,13.306,35.995,36.575,41.170,4.594,295.1,542.6,291.3
2023-09-30T04:42:07,2420,42.8014,5.9826,4330,272,186.922,57.239,13.303,36.014,36.594,41.189,4.595,295.1,542.7,291.5
2023-09-30T04:45:07,2420,42.8014,5.9826,4330,272,186.986,57.259,13.302,36.009,36.589,41.183,4.594,295.1,542.7,291.5
2023-09-30T04:48:07,2420,42.8014,5.9826,4330,272,187.021,57.272,13.304,36.006,36.586,41.174,4.588,295.2,542.6,291.4
2023-09-30T04:51:07,2420,42.8014,5.9826,4330,272,186.905,57.234,13.302,36.015,36.595,41.186,4.591,295.2,542.7,291.5
2023-09-30T04:54:07,2420,42.8014,5.9826,4330,272,187.257,57.344,13.304,35.991,36.572,41.167,4.596,295.2,542.7,291.4
2023-09-30T04:57:08,2420,42.8014,5.9826,4330,272,187.094,57.292,13.303,36.002,36.583,41.174,4.591,295.1,542.6,291.5
2023-09-30T05:00:08,2420,42.8014,5.9826,4330,272,187.017,57.269,13.303,36.007,36.587,41.181,4.593,295.2,542.7,291.5
2023-09-30T05:03:07,2420,42.8014,5.9826,4330,272,187.082,57.292,13.305,36.002,36.582,41.174,4.592,295.2,542.7,291.4
2023-09-30T05:06:07,2420,42.8014,5.9826,4330,272,186.633,57.151,13.302,36.032,36.612,41.201,4.589,295.1,542.6,291.5
2023-09-30T05:09:07,2420,42.8014,5.9826,4330,272,187.168,57.315,13.303,35.998,36.578,41.169,4.591,295.1,542.6,291.5
2023-09-30T05:12:07,2420,42.8014,5.9826,4330,272,187.121,57.302,13.304,36.000,36.580,41.170,4.590,295.1,542.6,291.4
2023-09-30T05:15:07,2420,42.8014,5.9826,4330,272,187.265,57.346,13.304,35.991,36.571,41.170,4.599,295.2,542.6,291.4
2023-09-30T05:18:07,2420,42.8014,5.9826,4330,272,187.151,57.312,13.304,35.998,36.578,41.171,4.593,295.1,542.6,291.4
2023-09-30T05:21:08,2420,42.8014,5.9826,4330,272,187.061,57.285,13.305,36.003,36.583,41.174,4.591,295.2,542.7,291.4
2023-09-30T05:24:08,2420,42.8014,5.9826,4330,272,186.822,57.210,13.303,36.020,36.600,41.189,4.589,295.1,542.6,291.4
2023-09-30T05:27:08,2420,42.8014,5.9826,4330,272,187.110,57.299,13.304,36.001,36.581,41.174,4.592,295.1,542.6,291.4
2023-09-30T05:30:08,2420,42.8014,5.9826,4330,272,187.194,57.325,13.304,35.995,36.575,41.168,4.592,295.1,542.6,291.4
2023-09-30T05:33:07,2420,42.8014,5.9826,4330,272,187.021,57.270,13.303,36.007,36.588,41.182,4.594,295.1,542.6,291.5
2023-09-30T05:36:07,2420,42.8014,5.9826,4330,272,187.178,57.320,13.304,35.996,36.576,41.172,4.596,295.2,542.7,291.4
2023-09-30T05:39:07,2420,42.8014,5.9826,4330,272,186.868,57.225,13.304,36.016,36.597,41.189,4.592,295.2,542.7,291.4
2023-09-30T05:42:07,2420,42.8014,5.9826,4330,272,186.871,57.228,13.306,36.016,36.596,41.182,4.586,295.2,542.6,291.4
2023-09-30T05:45:07,2420,42.8014,5.9826,4330,272,187.017,57.271,13.304,36.006,36.587,41.179,4.593,295.2,542.7,291.4
2023-09-30T05:48:07,2420,42.8014,5.9826,4330,272,186.895,57.231,13.302,36.015,36.595,41.190,4.595,295.2,542.6,291.5
2023-09-30T05:51:07,2420,42.8014,5.9826,4330,272,187.055,57.279,13.302,36.005,36.585,41.179,4.594,295.2,542.7,291.5
2023-09-30T05:54:07,2420,42.8014,5.9826,4330,272,186.941,57.246,13.303,36.012,36.592,41.184,4.592,295.1,542.7,291.4
2023-09-30T05:57:08,2420,42.8014,5.9826,4330,272,187.229,57.334,13.303,35.993,36.574,41.166,4.592,295.1,542.7,291.5
2023-09-30T06:00:08,2420,42.8014,5.9826,4330,272,187.190,57.325,13.305,35.995,36.575,41.169,4.594,295.1,542.6,291.4
2023-09-30T06:03:07,2420,42.8014,5.9826,4330,272,187.035,57.278,13.305,36.005,36.585,41.181,4.596,295.1,542.6,291.4
2023-09-30T06:06:07,2420,42.8014,5.9826,4330,272,186.948,57.248,13.303,36.011,36.591,41.185,4.594,295.1,542.6,291.5
2023-09-30T06:09:07,2420,42.8014,5.9826,4330,272,187.085,57.292,13.304,36.002,36.582,41.173,4.591,295.1,542.7,291.4
2023-09-30T06:12:07,2420,42.8014,5.9826,4330,272,187.008,57.266,13.303,36.008,36.588,41.174,4.586,295.1,542.6,291.5
2023-09-30T06:15:08,2420,42.8014,5.9826,4330,272,186.888,57.232,13.304,36.015,36.595,41.185,4.590,295.1,542.6,291.4
2023-09-30T06:18:08,2420,42.8014,5.9826,4330,272,187.015,57.269,13.304,36.007,36.588,41.181,4.594,295.1,542.7,291.4
2023-09-30T06:21:08,2420,42.8014,5.9826,4330,272,187.101,57.294,13.303,36.002,36.582,41.176,4.593,295.1,542.7,291.5
2023-09-30T06:24:08,2420,42.8014,5.9826,4330,272,187.090,57.292,13.303,36.002,36.583,41.178,4.596,295.2,542.6,291.5
2023-09-30T06:27:08,2420,42.8014,5.9826,4330,272,187.106,57.297,13.303,36.001,36.581,41.175,4.594,295.1,542.7,291.5
2023-09-30T06:30:08,2420,42.8014,5.9826,4330,272,187.177,57.318,13.303,35.997,36.577,41.166,4.589,295.2,542.6,291.5
2023-09-30T06:33:07,2420,42.8014,5.9826,4330,272,187.290,57.353,13.303,35.989,36.569,41.167,4.598,295.1,542.6,291.4
2023-09-30T06:36:07,2420,42.8014,5.9826,4330,272,187.110,57.299,13.304,36.000,36.581,41.173,4.592,295.1,542.6,291.4
2023-09-30T06:39:07,2420,42.8014,5.9826,4330,272,187.212,57.330,13.304,35.994,36.574,41.161,4.587,295.2,542.7,291.4
2023-09-30T06:42:07,2420,42.8014,5.9826,4330,272,187.003,57.265,13.303,36.008,36.588,41.183,4.595,295.2,542.6,291.5
2023-09-30T06:45:07,2420,42.8014,5.9826,4330,272,186.890,57.232,13.304,36.014,36.594,41.187,4.593,295.1,542.7,291.4
2023-09-30T06:48:07,2420,42.8014,5.9826,4330,272,186.858,57.219,13.302,36.018,36.598,41.188,4.590,295.2,542.7,291.5
2023-09-30T06:51:08,2420,42.8014,5.9826,4330,272,187.078,57.290,13.305,36.002,36.583,41.176,4.594,295.2,542.6,291.4
2023-09-30T06:54:08,2420,42.8014,5.9826,4330,272,187.184,57.321,13.303,35.996,36.577,41.175,4.598,295.2,542.7,291.5
2023-09-30T06:57:08,2420,42.8014,5.9826,4330,272,187.108,57.298,13.304,36.001,36.581,41.172,4.591,295.2,542.7,291.4
2023-09-30T07:00:08,2420,42.8014,5.9826,4330,272,187.277,57.348,13.302,35.991,36.571,41.163,4.592,295.1,542.7,291.5
2023-09-30T07:03:07,2420,42.8014,5.9826,4330,272,187.048,57.279,13.304,36.005,36.585,41.179,4.594,295.2,542.6,291.4
2023-09-30T07:06:07,2420,42.8014,5.9826,4330,272,187.165,57.314,13.303,35.997,36.578,41.170,4.592,295.1,542.7,291.5
2023-09-30T07:09:07,2420,42.8014,5.9826,4330,272,187.220,57.331,13.303,35.994,36.574,41.173,4.599,295.2,542.7,291.5
2023-09-30T07:12:07,2420,42.8014,5.9826,4330,272,187.157,57.311,13.302,35.998,36.578,41.169,4.591,295.1,542.6,291.5
2023-09-30T07:15:07,2420,42.8014,5.9826,4330,272,187.179,57.318,13.302,35.997,36.577,41.172,4.595,295.1,542.6,291.5
2023-09-30T07:18:07,2420,42.8014,5.9826,4330,272,186.947,57.248,13.303,36.011,36.592,41.186,4.595,295.1,542.7,291.5
2023-09-30T07:21:07,2420,42.8014,5.9826,4330,272,187.173,57.317,13.303,35.997,36.577,41.170,4.593,295.2,542.7,291.5
2023-09-30T07:24:07,2420,42.8014,5.9826,4330,272,187.041,57.278,13.304,36.005,36.586,41.176,4.590,295.1,542.7,291.4
2023-09-30T07:27:07,2420,42.8014,5.9826,4330,272,187.254,57.341,13.303,35.992,36.572,41.168,4.596,295.1,542.6,291.5
2023-09-30T07:30:07,2420,42.8014,5.9826,4330,272,186.985,57.261,13.304,36.008,36.589,41.179,4.590,295.1,542.6,291.4
2023-09-30T07:33:07,2420,42.8014,5.9826,4330,272,187.206,57.325,13.302,35.996,36.576,41.170,4.594,295.1,542.7,291.5
2023-09-30T07:36:07,2420,42.8014,5.9826,4330,272,186.932,57.240,13.301,36.013,36.594,41.188,4.594,295.1,542.7,291.5
2023-09-30T07:39:07,2420,42.8014,5.9826,4330,272,187.051,57.277,13.301,36.006,36.586,41.179,4.593,295.2,542.7,291.5
2023-09-30T07:42:07,2420,42.8014,5.9826,4330,272,187.305,57.355,13.301,35.989,36.570,41.162,4.593,295.1,542.7,291.5
2023-09-30T07:45:07,2420,42.8014,5.9826,4330,272,186.786,57.196,13.301,36.023,36.603,41.193,4.590,295.2,542.7,291.5
2023-09-30T07:48:07,2420,42.8014,5.9826,4330,272,186.901,57.232,13.302,36.015,36.595,41.187,4.592,295.1,542.7,291.5
2023-09-30T07:51:07,2420,42.8014,5.9826,4330,272,187.089,57.291,13.303,36.002,36.583,41.173,4.590,295.1,542.7,291.5
2023-09-30T07:54:08,2420,42.8014,5.9826,4330,272,187.094,57.289,13.300,36.004,36.584,41.173,4.589,295.1,542.6,291.6
2023-09-30T07:57:08,2420,42.8014,5.9826,4330,272,187.332,57.363,13.301,35.988,36.568,41.163,4.595,295.2,542.7,291.5
2023-09-30T08:00:08,2420,42.8014,5.9826,4330,272,186.860,57.219,13.302,36.018,36.598,41.184,4.586,295.1,542.6,291.5
2023-09-30T08:03:07,2420,42.8014,5.9826,4330,272,187.230,57.336,13.304,35.993,36.573,41.163,4.590,295.1,542.6,291.4
2023-09-30T08:06:07,2420,42.8014,5.9826,4330,272,186.939,57.245,13.303,36.012,36.592,41.184,4.591,295.1,542.6,291.5
2023-09-30T08:09:08,2420,42.8014,5.9826,4330,272,187.039,57.278,13.304,36.005,36.586,41.172,4.587,295.1,542.7,291.4
2023-09-30T08:12:08,2420,42.8014,5.9826,4330,272,187.009,57.264,13.301,36.009,36.589,41.179,4.590,295.1,542.6,291.5
2023-09-30T08:15:08,2420,42.8014,5.9826,4330,272,187.356,57.372,13.302,35.986,36.566,41.159,4.593,295.1,542.6,291.5
2023-09-30T08:18:08,2420,42.8014,5.9826,4330,272,187.310,57.359,13.303,35.988,36.568,41.164,4.596,295.1,542.6,291.5
2023-09-30T08:21:08,2420,42.8014,5.9826,4330,272,187.044,57.276,13.302,36.006,36.586,41.180,4.594,295.1,542.7,291.5
2023-09-30T08:24:08,2420,42.8014,5.9826,4330,272,186.999,57.263,13.303,36.009,36.589,41.177,4.589,295.1,542.7,291.5
2023-09-30T08:27:08,2420,42.8014,5.9826,4330,272,187.089,57.292,13.303,36.002,36.582,41.177,4.594,295.1,542.7,291.4
2023-09-30T08:30:08,2420,42.8014,5.9826,4330,272,186.906,57.235,13.302,36.015,36.595,41.186,4.591,295.1,542.6,291.5
2023-09-30T08:33:07,2420,42.8014,5.9826,4330,272,187.087,57.289,13.302,36.003,36.583,41.173,4.590,295.1,542.7,291.5
2023-09-30T08:36:07,2420,42.8014,5.9826,4330,272,187.299,57.354,13.301,35.990,36.570,41.164,4.594,295.2,542.7,291.5
2023-09-30T08:39:07,2420,42.8014,5.9826,4330,272,187.089,57.290,13.302,36.003,36.583,41.178,4.594,295.1,542.7,291.5
2023-09-30T08:42:07,2420,42.8014,5.9826,4330,272,186.879,57.226,13.303,36.016,36.596,41.190,4.594,295.1,542.7,291.5
2023-09-30T08:45:07,2420,42.8014,5.9826,4330,272,187.197,57.326,13.304,35.995,36.576,41.173,4.597,295.1,542.7,291.4
2023-09-30T08:48:07,2420,42.8014,5.9826,4330,272,187.239,57.337,13.303,35.993,36.573,41.167,4.594,295.1,542.7,291.5
2023-09-30T08:51:07,2420,42.8014,5.9826,4330,272,187.203,57.327,13.303,35.995,36.575,41.167,4.592,295.2,542.7,291.4
2023-09-30T08:54:07,2420,42.8014,5.9826,4330,272,187.064,57.286,13.305,36.003,36.584,41.178,4.595,295.1,542.6,291.4
2023-09-30T08:57:07,2420,42.8014,5.9826,4330,272,187.228,57.333,13.303,35.993,36.573,41.166,4.593,295.2,542.7,291.5
2023-09-30T09:00:07,2420,42.8014,5.9826,4330,272,187.402,57.389,13.304,35.981,36.562,41.158,4.596,295.0,542.7,291.4
2023-09-30T09:03:07,2420,42.8014,5.9826,4330,272,187.271,57.345,13.302,35.991,36.572,41.165,4.593,295.1,542.7,291.5
2023-09-30T09:06:07,2420,42.8014,5.9826,4330,272,187.042,57.277,13.303,36.006,36.586,41.178,4.592,295.2,542.6,291.5
2023-09-30T09:09:07,2420,42.8014,5.9826,4330,272,187.374,57.380,13.304,35.984,36.564,41.160,4.596,295.1,542.7,291.4
2023-09-30T09:12:07,2420,42.8014,5.9826,4330,272,187.065,57.283,13.302,36.004,36.584,41.180,4.596,295.2,542.7,291.5
2023-09-30T09:15:07,2420,42.8014,5.9826,4330,272,186.902,57.233,13.302,36.014,36.595,41.189,4.594,295.1,542.6,291.5
2023-09-30T09:18:07,2420,42.8014,5.9826,4330,272,187.243,57.337,13.302,35.993,36.573,41.166,4.593,295.1,542.7,291.5
2023-09-30T09:21:07,2420,42.8014,5.9826,4330,272,187.293,57.354,13.303,35.989,36.570,41.161,4.592,295.1,542.6,291.5
2023-09-30T09:24:08,2420,42.8014,5.9826,4330,272,187.021,57.271,13.304,36.007,36.587,41.178,4.591,295.1,542.7,291.4
2023-09-30T09:27:08,2420,42.8014,5.9826,4330,272,186.979,57.255,13.301,36.010,36.591,41.178,4.588,295.1,542.6,291.5
2023-09-30T09:30:08,2420,42.8014,5.9826,4330,272,187.259,57.342,13.302,35.992,36.572,41.169,4.596,295.1,542.6,291.5
2023-09-30T09:33:07,2420,42.8014,5.9826,4330,272,187.155,57.313,13.304,35.998,36.578,41.177,4.599,295.1,542.7,291.4
2023-09-30T09:36:07,2420,42.8014,5.9826,4330,272,187.096,57.294,13.303,36.002,36.582,41.174,4.591,295.1,542.7,291.4
2023-09-30T09:39:07,2420,42.8014,5.9826,4330,272,186.954,57.248,13.302,36.012,36.592,41.183,4.591,295.1,542.6,291.5
2023-09-30T09:42:07,2420,42.8014,5.9826,4330,272,187.212,57.328,13.302,35.995,36.575,41.167,4.591,295.0,542.7,291.5
2023-09-30T09:45:07,2420,42.8014,5.9826,4330,272,186.914,57.238,13.303,36.013,36.594,41.184,4.591,295.1,542.7,291.5
2023-09-30T09:48:07,2420,42.8014,5.9826,4330,272,187.325,57.366,13.305,35.986,36.567,41.165,4.599,295.1,542.7,291.4
2023-09-30T09:51:07,2420,42.8014,5.9826,4330,272,187.132,57.306,13.304,35.999,36.579,41.175,4.596,295.1,542.6,291.4
2023-09-30T09:54:07,2420,42.8014,5.9826,4330,272,187.148,57.308,13.302,35.999,36.580,41.173,4.593,295.1,542.7,291.5
2023-09-30T09:57:07,2420,42.8014,5.9826,4330,272,187.128,57.303,13.303,36.000,36.580,41.175,4.595,295.1,542.6,291.5
2023-09-30T10:00:08,2420,42.8014,5.9826,4330,272,187.043,57.277,13.303,36.005,36.585,41.176,4.591,295.1,542.7,291.5